Tracking 29781 objects as of 16-Oct-2024
HD Live streaming from Space Station
objects crossing your sky now

FENGYUN 1C DEB

Track FENGYUN 1C DEB now!
10-day predictions


NORAD ID: 30010
Int'l Code: 1999-025MK
Perigee: 764.5 km
Apogee: 870.1 km
Inclination: 99.1 °
Period: 101.1 minutes
Semi major axis: 7188 km
RCS: 0.1109 m2 (medium)
Launch date: May 10, 1999
Source: People's Republic of China (PRC)
Launch site: Taiyaun Space Center, China (TSC)

Note: This is SATELLITE DEBRIS
Your satellite tracking list
Your tracking list is empty




NASA's NSSDC Master Catalog

Two Line Element Set (TLE):
1 30010U 99025MK  24289.75497618  .00000746  00000-0  33295-3 0  9993
2 30010  99.0683 101.8245 0073430 345.6327  25.7904 14.24506470922552
Source of the keplerian elements: AFSPC